[[{"header":{"parameterUnit":"m.s-1","parameterCategory":2,"la1":30.2991,"la2":30.254,"lo1":-89.0895,"lo2":-89.0444,"dy":0.0017,"dx":0.0017,"nx":28,"ny":28,"refTime":"2024-09-25T09:00:00:Z","depth":"0","parameterNumber":2,"parameterNumberName":"U-component_of_CURRENTS"},"data":[0,0,0,0,0,0,0,0,0,0,0,0,0,0,0,0,0,0,0,0,0,0,0,0,0,0,0,0,0,0,0,0,0,0,0,0,0,0,0,0,0,0,0,0,0,0,0,0,0,0,0,0,0,0,0,0,0,0,0.2498,0.2498,0,0.2502,0.2501,0.2501,0.2487,0.2487,0.2487,0.2487,0.2462,0.2461,0.2461,0,0,0,0,0,0,0,0,0,0,0,0,0,0.2474,0.2474,0.2498,0.2498,0.2498,0.2502,0.2501,0.2501,0.2487,0.2487,0.2487,0.2487,0.2462,0.2461,0.2461,0,0,0,0,0,0,0,0,0,0,0,0,0,0.2479,0.2474,0.2498,0.2494,0.2494,0.2502,0.2501,0.2501,0.2487,0.2487,0.2487,0.2487,0.2462,0.2461,0.246,0.2461,0,0,0.2458,0.2458,0,0,0,0,0,0,0,0,0.2479,0.248,0.2494,0.2494,0.2494,0.2496,0.2484,0.2487,0.2487,0.2487,0.2487,0.2486,0.2472,0.2471,0.2469,0.246,0.2459,0.2458,0.2458,0.2457,0.2457,0,0,0,0,0,0,0,0.2479,0.248,0.2497,0.2494,0.2494,0.249,0.249,0.2484,0.2479,0.2487,0.2487,0.2491,0.2472,0.2469,0.2468,0.2459,0.2458,0.2457,0.2457,0.2457,0.2478,0.2479,0,0,0,0,0,0,0.2484,0.2479,0.2497,0.2497,0.2488,0.2491,0.2491,0.2493,0.2479,0.2478,0.2492,0.2491,0.2471,0.2469,0.2467,0.2488,0.2457,0.2457,0.2456,0.2477,0.2478,0.2479,0,0,0,0,0,0,0.2483,0.2485,0.2497,0.249,0.2492,0.2492,0.2495,0.2494,0.2496,0.2483,0.2481,0.2495,0.2471,0.2468,0.247,0.2486,0.2456,0.2456,0.2476,0.2477,0.2479,0.2516,0,0,0,0,0,0,0.2483,0.2485,0.2488,0.2491,0.2492,0.2507,0.2495,0.2494,0.25,0.2499,0.2486,0.2483,0.247,0.2472,0.247,0.2484,0.2455,0.2475,0.2477,0.2478,0.2513,0.2518,0.2523,0,0,0,0,0,0.2482,0.2487,0.2488,0.249,0.2497,0.2508,0.2508,0.2506,0.2501,0.2505,0.2499,0.2484,0.2483,0.2472,0.2469,0.2484,0.2474,0.2476,0.2478,0.2511,0.2517,0.2523,0,0,0,0,0,0,0.2476,0.2486,0.2488,0.2495,0.2505,0.2507,0.2511,0.2511,0.2509,0.2508,0.2492,0.2489,0.25,0.2489,0.2477,0.2498,0.2478,0.2479,0.2504,0.2509,0.2514,0.2537,0.2454,0,0,0,0,0,0.2478,0.2484,0.2495,0.2501,0.2508,0.2511,0.2515,0.2516,0.2517,0.2516,0.2507,0.2503,0.2508,0.2505,0.2505,0.251,0.2525,0.2521,0.2525,0.2529,0.2548,0.2583,0.2593,0.2487,0.2487,0.2487,0,0,0.2476,0.2484,0.2486,0.2501,0.2507,0.2523,0.2512,0.2523,0.2537,0.2513,0.2524,0.252,0.2515,0.2526,0.2529,0.2516,0.2568,0.2532,0.2536,0.2552,0.2587,0.2597,0.2606,0.2489,0.2488,0.2488,0,0,0.2481,0.2486,0.2496,0.2508,0.2525,0.2531,0.2537,0.2545,0.2549,0.2559,0.2553,0.2563,0.2554,0.2564,0.2565,0.2598,0.2595,0.2592,0.2629,0.2663,0.2672,0.268,0.2714,0.2725,0.259,0.259,0.259,0,0.248,0.2495,0.2501,0.2519,0.2533,0.2538,0.2558,0.2566,0.2573,0.2584,0.2568,0.2588,0.2578,0.2611,0.2622,0.261,0.2628,0.2605,0.267,0.2678,0.2686,0.2719,0.273,0.2592,0.2592,0.2592,0.2592,0,0.2496,0.2512,0.252,0.2546,0.2562,0.2578,0.2597,0.261,0.2613,0.2622,0.2651,0.2646,0.2662,0.2658,0.2648,0.2701,0.2696,0.2674,0.2655,0.2699,0.273,0.2742,0.2595,0.2594,0.2594,0.2593,0,0,0.2486,0.2525,0.2528,0.2548,0.2578,0.2594,0.2623,0.2655,0.2688,0.2687,0.2731,0.2734,0.2738,0.2742,0.2735,0.2761,0.2825,0.2743,0.2744,0.2778,0.2907,0.2939,0.2954,0.2813,0.2815,0.2817,0.2907,0,0.2499,0.2537,0.2554,0.2592,0.2615,0.2636,0.2668,0.2697,0.2721,0.2764,0.2771,0.2808,0.2768,0.2788,0.2806,0.2832,0.2858,0.2804,0.2859,0.2861,0.2885,0.297,0.2977,0.3061,0.2918,0.292,0.2921,0,0.2511,0.2537,0.2575,0.2626,0.2639,0.2663,0.2724,0.2754,0.2814,0.284,0.2875,0.2886,0.2936,0.2892,0.2953,0.2921,0.2922,0.2928,0.2931,0.2961,0.2916,0.2994,0.3087,0.3115,0.2939,0.2937,0.2936,0,0.2505,0.2553,0.2584,0.26,0.2657,0.2681,0.2712,0.2772,0.2823,0.2899,0.2949,0.299,0.3036,0.3044,0.3056,0.3012,0.3127,0.3062,0.309,0.3091,0.3111,0.3111,0.3242,0.3107,0.3107,0.3107,0.3107,0,0.2513,0.2538,0.2584,0.2602,0.2651,0.2687,0.2751,0.2796,0.2884,0.2952,0.2989,0.3061,0.3078,0.3134,0.3112,0.3165,0.3173,0.3133,0.3132,0.3124,0.3125,0.3158,0.314,0.311,0.3109,0.3109,0.3108,0,0.2503,0.2531,0.2572,0.2629,0.2649,0.2683,0.2773,0.2825,0.2912,0.3009,0.3042,0.3148,0.3228,0.3246,0.3291,0.326,0.3245,0.3291,0.3288,0.3285,0.3316,0.3298,0.321,0.3101,0.334,0.3342,0.3343,0,0.2502,0.2521,0.2583,0.261,0.2635,0.2692,0.2735,0.2828,0.2893,0.3053,0.3103,0.323,0.3313,0.3422,0.3424,0.3442,0.3315,0.3429,0.3343,0.3364,0.3343,0.3132,0.3028,0.3379,0.338,0.3382,0.3383,0,0.2503,0.2524,0.256,0.2608,0.265,0.2697,0.2766,0.2825,0.2936,0.3038,0.3172,0.3263,0.3411,0.3475,0.3532,0.3519,0.3349,0.3454,0.3483,0.3412,0.3185,0.3065,0.3268,0.3394,0.3393,0.3392,0.3391,0.3391,0.2503,0.2523,0.2565,0.2604,0.2647,0.2678,0.2692,0.2786,0.2885,0.3009,0.315,0.3292,0.3497,0.3602,0.3559,0.3599,0.3422,0.3552,0.3537,0.3326,0.32,0.3438,0.3554,0.3553,0.3553,0.3553,0.3553,0,0.2488,0.2513,0.2557,0.2588,0.2598,0.2633,0.2691,0.2693,0.2764,0.2968,0.3086,0.3379,0.3531,0.3644,0.3791,0.3733,0.3467,0.3669,0.3409,0.3301,0.3573,0.3562,0.3679,0.3679,0.3679,0.3679,0.3679,0.3679,0.2484,0.2503,0.2518,0.2518,0.2533,0.2502,0.2506,0.2535,0.2656,0.285,0.3047,0.3227,0.3633,0.399,0.4045,0.392,0.3613,0.3502,0.3379,0.3683,0.367,0.3658,0.3647,0.378,0.378,0.2989,0.2984,0.2981]},{"header":{"parameterUnit":"m.s-1","parameterCategory":2,"la1":30.2991,"la2":30.254,"lo1":-89.0895,"lo2":-89.0444,"dy":0.0017,"dx":0.0017,"nx":28,"ny":28,"refTime":"2024-09-25T09:00:00:Z","depth":"0","parameterNumber":3,"parameterNumberName":"V-component_of_CURRENTS"},"data":[0,0,0,0,0,0,0,0,0,0,0,0,0,0,0,0,0,0,0,0,0,0,0,0,0,0,0,0,0,0,0,0,0,0,0,0,0,0,0,0,0,0,0,0,0,0,0,0,0,0,0,0,0,0,0,0,0,0,-0.0158,-0.0158,0,-0.0208,-0.0209,-0.0209,-0.0249,-0.0249,-0.0249,-0.025,-0.0316,-0.0317,-0.0319,0,0,0,0,0,0,0,0,0,0,0,0,0,-0.0149,-0.0149,-0.0158,-0.0158,-0.0159,-0.0208,-0.0209,-0.021,-0.0249,-0.0249,-0.0249,-0.025,-0.0315,-0.0317,-0.0319,0,0,0,0,0,0,0,0,0,0,0,0,0,-0.0173,-0.0149,-0.0158,-0.0183,-0.0185,-0.0208,-0.0209,-0.021,-0.0249,-0.0249,-0.025,-0.025,-0.0315,-0.0317,-0.0319,-0.0328,0,0,-0.0326,-0.0327,0,0,0,0,0,0,0,0,-0.0172,-0.0174,-0.0179,-0.0181,-0.0184,-0.0221,-0.023,-0.0249,-0.0249,-0.0227,-0.025,-0.025,-0.0284,-0.0289,-0.03,-0.0331,-0.0334,-0.0327,-0.0328,-0.0329,-0.033,0,0,0,0,0,0,0,-0.017,-0.0172,-0.018,-0.0179,-0.0182,-0.0209,-0.0213,-0.0234,-0.0255,-0.0229,-0.0231,-0.0234,-0.0286,-0.0298,-0.0302,-0.0334,-0.0327,-0.0329,-0.033,-0.0331,-0.0367,-0.0367,0,0,0,0,0,0,-0.0156,-0.017,-0.0178,-0.0181,-0.0176,-0.0209,-0.0213,-0.021,-0.0254,-0.0261,-0.0233,-0.0235,-0.0294,-0.0299,-0.0305,-0.0302,-0.0329,-0.0331,-0.0333,-0.0368,-0.0367,-0.0367,0,0,0,0,0,0,-0.0156,-0.0156,-0.0176,-0.0176,-0.018,-0.0208,-0.0205,-0.0211,-0.022,-0.0257,-0.0264,-0.0236,-0.0294,-0.0301,-0.0316,-0.0306,-0.0332,-0.0334,-0.0368,-0.0368,-0.0367,-0.0307,0,0,0,0,0,0,-0.0155,-0.0156,-0.0151,-0.0174,-0.0179,-0.0181,-0.0205,-0.0212,-0.022,-0.0223,-0.0262,-0.0268,-0.0295,-0.0312,-0.0318,-0.031,-0.0336,-0.0369,-0.0368,-0.0367,-0.031,-0.0305,-0.03,0,0,0,0,0,-0.0155,-0.0142,-0.0151,-0.0152,-0.0171,-0.018,-0.0185,-0.0208,-0.022,-0.0219,-0.0244,-0.0267,-0.0311,-0.0313,-0.0321,-0.0313,-0.0369,-0.0368,-0.0367,-0.0312,-0.0306,-0.0301,0,0,0,0,0,0,-0.0136,-0.0145,-0.0155,-0.0146,-0.0159,-0.0185,-0.0187,-0.0202,-0.0222,-0.0224,-0.0262,-0.027,-0.028,-0.0303,-0.0305,-0.0321,-0.0344,-0.0344,-0.03,-0.0294,-0.0289,-0.0276,-0.0338,0,0,0,0,0,-0.0128,-0.0121,-0.0138,-0.0131,-0.0134,-0.016,-0.0167,-0.018,-0.02,-0.0209,-0.0236,-0.0262,-0.0282,-0.0292,-0.0316,-0.0322,-0.0351,-0.0322,-0.0317,-0.0313,-0.0307,-0.0342,-0.034,-0.0363,-0.0363,-0.0363,0,0,-0.012,-0.0123,-0.012,-0.0127,-0.014,-0.0134,-0.0165,-0.0168,-0.0165,-0.0213,-0.0218,-0.0247,-0.0281,-0.029,-0.0296,-0.0307,-0.0321,-0.0312,-0.0308,-0.0304,-0.0341,-0.0338,-0.0336,-0.0363,-0.0363,-0.0363,0,0,-0.0093,-0.0101,-0.0085,-0.0092,-0.0102,-0.0114,-0.011,-0.0132,-0.0144,-0.0152,-0.0185,-0.0204,-0.0236,-0.0257,-0.0272,-0.0254,-0.0295,-0.0262,-0.0226,-0.0259,-0.0258,-0.0257,-0.0287,-0.0289,-0.0258,-0.0258,-0.0258,0,-0.0083,-0.0065,-0.0083,-0.0071,-0.0069,-0.0098,-0.008,-0.0096,-0.012,-0.0125,-0.0145,-0.0191,-0.022,-0.023,-0.0225,-0.0243,-0.0269,-0.0244,-0.0253,-0.0252,-0.0252,-0.0284,-0.0287,-0.0255,-0.0255,-0.0256,-0.0256,0,-0.0047,-0.0034,-0.0025,-0.0016,-0.0017,-0.0007,-0.0024,-0.003,-0.0048,-0.0066,-0.0084,-0.0129,-0.0154,-0.0168,-0.0192,-0.0201,-0.0222,-0.0244,-0.0266,-0.0246,-0.0281,-0.0285,-0.0251,-0.0252,-0.0253,-0.0254,0,0,-0.0016,-0.0001,0.0003,0.002,0.0015,0.0023,0.0028,0.0027,0.0037,-0.0004,0.0001,-0.0045,-0.0074,-0.0093,-0.0129,-0.0159,-0.0183,-0.0195,-0.0199,-0.0222,-0.0256,-0.0278,-0.0285,-0.0208,-0.0208,-0.0209,-0.0279,0,0.0019,0.0061,0.0057,0.0097,0.0118,0.0096,0.0104,0.0096,0.0083,0.0077,0.0022,0.001,-0.0044,-0.0052,-0.0092,-0.0155,-0.0192,-0.0162,-0.0275,-0.0278,-0.0297,-0.029,-0.0297,-0.0361,-0.0284,-0.0284,-0.0285,0,0.0058,0.0083,0.0129,0.016,0.0166,0.0181,0.0199,0.0206,0.0184,0.017,0.0141,0.0098,0.0052,0.0001,-0.0107,-0.0085,-0.0164,-0.0223,-0.0227,-0.0271,-0.0308,-0.0369,-0.0372,-0.0557,-0.0292,-0.0292,-0.0291,0,0.0098,0.0137,0.018,0.0188,0.0211,0.0225,0.0237,0.0233,0.0259,0.0234,0.0246,0.017,0.0147,0.0036,-0.0092,-0.0097,-0.0217,-0.0241,-0.034,-0.0342,-0.0381,-0.0386,-0.0573,-0.0325,-0.0325,-0.0325,-0.0324,0,0.014,0.0175,0.0201,0.0224,0.0279,0.0272,0.0327,0.0324,0.0338,0.0382,0.03,0.0316,0.0154,0.0066,-0.0066,-0.0213,-0.0203,-0.0331,-0.0362,-0.036,-0.0363,-0.0553,-0.0676,-0.0327,-0.0327,-0.0326,-0.0326,0,0.0178,0.0191,0.0248,0.0283,0.03,0.034,0.0402,0.0445,0.0438,0.0494,0.0492,0.0429,0.0319,0.0143,-0.0032,-0.0165,-0.044,-0.0375,-0.0362,-0.0389,-0.064,-0.0759,-0.0992,-0.1115,-0.0483,-0.0484,-0.0485,0,0.0201,0.0232,0.0299,0.0345,0.0365,0.0424,0.0473,0.0495,0.0557,0.0574,0.0615,0.0524,0.0491,0.0215,-0.0046,-0.029,-0.0484,-0.0467,-0.048,-0.0658,-0.0813,-0.0895,-0.0988,-0.0511,-0.0512,-0.0513,-0.0513,0,0.0252,0.0273,0.0325,0.0415,0.0479,0.0559,0.0634,0.07,0.0733,0.078,0.083,0.0803,0.0537,0.0303,-0.0055,-0.0244,-0.0633,-0.0489,-0.0684,-0.0861,-0.0954,-0.1084,-0.0462,-0.052,-0.052,-0.0519,-0.0519,-0.0518,0.0295,0.0342,0.0411,0.0498,0.058,0.0685,0.0768,0.0858,0.0964,0.105,0.1007,0.1011,0.0634,0.0162,-0.0142,-0.068,-0.0694,-0.0822,-0.0952,-0.1017,-0.1143,-0.0532,-0.0617,-0.0617,-0.0617,-0.0617,-0.0617,0,0.0352,0.0407,0.0492,0.06,0.0699,0.0727,0.0874,0.0964,0.1105,0.1186,0.1231,0.1057,0.0581,0.0076,-0.0625,-0.103,-0.122,-0.1284,-0.1414,-0.1488,-0.0946,-0.0952,-0.1101,-0.1101,-0.11,-0.11,-0.11,-0.11,0.0387,0.0476,0.0516,0.068,0.076,0.0904,0.0996,0.1128,0.123,0.1327,0.1342,0.1311,0.0933,-0.0309,-0.1208,-0.1462,-0.1818,-0.1902,-0.2075,-0.1707,-0.1674,-0.1642,-0.1675,-0.1973,-0.1974,-0.2555,-0.2561,-0.2565]}],[{"header":{"parameterUnit":"m.s-1","parameterCategory":2,"la1":30.2991,"la2":30.254,"lo1":-89.0895,"lo2":-89.0444,"dy":0.0017,"dx":0.0017,"nx":28,"ny":28,"refTime":"2024-09-25T09:00:00:Z","depth":"2","parameterNumber":2,"parameterNumberName":"U-component_of_CURRENTS"},"data":[0,0,0,0,0,0,0,0,0,0,0,0,0,0,0,0,0,0,0,0,0,0,0,0,0,0,0,0,0,0,0,0,0,0,0,0,0,0,0,0,0,0,0,0,0,0,0,0,0,0,0,0,0,0,0,0,0,0,0.2465,0.2465,0,0.2469,0.2468,0.2468,0.2456,0.2456,0.2456,0.2456,0.2432,0.2432,0.2431,0,0,0,0,0,0,0,0,0,0,0,0,0,0.2441,0.2441,0.2465,0.2465,0.2465,0.2469,0.2468,0.2468,0.2456,0.2456,0.2456,0.2455,0.2432,0.2432,0.2431,0,0,0,0,0,0,0,0,0,0,0,0,0,0.2446,0.2441,0.2465,0.2461,0.2461,0.2469,0.2468,0.2468,0.2456,0.2456,0.2456,0.2455,0.2433,0.2432,0.2431,0.2431,0,0,0.2429,0.2429,0,0,0,0,0,0,0,0,0.2446,0.2447,0.2462,0.2462,0.2462,0.2464,0.2452,0.2455,0.2456,0.2455,0.2456,0.2455,0.2442,0.2441,0.2439,0.243,0.2429,0.2429,0.2428,0.2428,0.2428,0,0,0,0,0,0,0,0.2445,0.2446,0.2464,0.2462,0.2462,0.2458,0.2458,0.2452,0.2447,0.2455,0.2455,0.246,0.2441,0.2439,0.2438,0.2428,0.2429,0.2428,0.2428,0.2427,0.2449,0.245,0,0,0,0,0,0,0.2451,0.2446,0.2464,0.2464,0.2456,0.2459,0.2459,0.2461,0.2448,0.2447,0.246,0.2459,0.2441,0.2439,0.2437,0.2459,0.2428,0.2427,0.2427,0.2448,0.2449,0.2451,0,0,0,0,0,0,0.245,0.2452,0.2464,0.2457,0.2459,0.246,0.2462,0.2462,0.2465,0.2452,0.245,0.2465,0.244,0.2438,0.2441,0.2457,0.2427,0.2426,0.2447,0.2449,0.245,0.2487,0,0,0,0,0,0,0.2449,0.2452,0.2455,0.2458,0.2459,0.2474,0.2463,0.2462,0.2469,0.2468,0.2455,0.2453,0.244,0.2442,0.244,0.2455,0.2426,0.2446,0.2448,0.245,0.2485,0.249,0.2494,0,0,0,0,0,0.2448,0.2454,0.2455,0.2458,0.2464,0.2475,0.2475,0.2473,0.2469,0.2474,0.2468,0.2453,0.2453,0.2442,0.244,0.2455,0.2445,0.2447,0.2449,0.2483,0.2489,0.2494,0,0,0,0,0,0,0.2443,0.2453,0.2455,0.2463,0.2472,0.2474,0.2479,0.2479,0.2478,0.2477,0.2462,0.2459,0.2471,0.2459,0.2448,0.2469,0.2448,0.245,0.2475,0.248,0.2485,0.2508,0.2425,0,0,0,0,0,0.2446,0.2452,0.2463,0.2469,0.2476,0.2479,0.2484,0.2485,0.2485,0.2485,0.2477,0.2474,0.2478,0.2476,0.2475,0.2481,0.2496,0.2492,0.2497,0.2501,0.2519,0.2554,0.2563,0.2458,0.2458,0.2458,0,0,0.2444,0.2452,0.2454,0.2469,0.2475,0.249,0.2481,0.2492,0.2506,0.2482,0.2494,0.249,0.2485,0.2496,0.25,0.2487,0.2539,0.2504,0.2507,0.2523,0.2557,0.2567,0.2577,0.246,0.2459,0.2459,0,0,0.2449,0.2454,0.2465,0.2477,0.2494,0.2499,0.2506,0.2514,0.2519,0.2529,0.2523,0.2534,0.2525,0.2534,0.2536,0.2568,0.2566,0.2563,0.26,0.2633,0.2643,0.2651,0.2684,0.2695,0.2561,0.2562,0.2562,0,0.2449,0.2464,0.2469,0.2487,0.2501,0.2507,0.2526,0.2535,0.2542,0.2554,0.2538,0.2559,0.2549,0.2582,0.2593,0.258,0.2598,0.2576,0.264,0.2649,0.2657,0.2688,0.27,0.2564,0.2563,0.2563,0.2563,0,0.2465,0.248,0.2489,0.2514,0.253,0.2546,0.2565,0.2578,0.2582,0.2591,0.2621,0.2616,0.2632,0.2628,0.2618,0.2671,0.2666,0.2645,0.2626,0.267,0.27,0.2711,0.2567,0.2566,0.2565,0.2565,0,0,0.2456,0.2493,0.2497,0.2517,0.2547,0.2562,0.2591,0.2623,0.2656,0.2655,0.2699,0.2703,0.2707,0.2712,0.2705,0.273,0.2794,0.2713,0.2714,0.2747,0.2875,0.2904,0.2919,0.2783,0.2785,0.2787,0.2874,0,0.2468,0.2505,0.2522,0.256,0.2583,0.2603,0.2635,0.2664,0.2689,0.2732,0.2739,0.2776,0.2737,0.2757,0.2776,0.2801,0.2826,0.2773,0.2828,0.283,0.2851,0.2934,0.2643,0.27,0.2885,0.2887,0.2889,0,0.248,0.2506,0.2544,0.2594,0.2607,0.263,0.2691,0.2721,0.278,0.2807,0.2842,0.2853,0.2903,0.286,0.2921,0.2889,0.289,0.2896,0.2899,0.2926,0.2881,0.2687,0.2714,0.2908,0.2906,0.2905,0.2903,0,0.2474,0.2521,0.2553,0.2569,0.2624,0.2648,0.2679,0.2739,0.2789,0.2865,0.2915,0.2956,0.3002,0.301,0.3022,0.2979,0.3092,0.3028,0.3053,0.3054,0.282,0.2798,0.3072,0.3072,0.3072,0.3072,0.3072,0,0.2482,0.2508,0.2553,0.2571,0.2619,0.2655,0.2719,0.2763,0.2851,0.2918,0.2955,0.3026,0.3044,0.3098,0.3077,0.3127,0.3137,0.3095,0.3094,0.2826,0.2806,0.2988,0.2977,0.3075,0.3074,0.3074,0.3073,0,0.2473,0.2501,0.2541,0.2598,0.2617,0.2652,0.2741,0.2793,0.2879,0.2975,0.3008,0.3112,0.319,0.3208,0.3252,0.3221,0.3247,0.325,0.2949,0.2913,0.3165,0.3155,0.3291,0.3293,0.3295,0.3296,0.3297,0,0.2471,0.2491,0.2552,0.2579,0.2604,0.2661,0.2704,0.2796,0.286,0.3018,0.3066,0.3191,0.3262,0.3368,0.3306,0.3306,0.3331,0.3072,0.2946,0.3211,0.3195,0.3182,0.317,0.2632,0.2627,0.2624,0.2621,0,0.2473,0.2494,0.2529,0.2577,0.2619,0.2665,0.2733,0.2792,0.2901,0.299,0.312,0.3199,0.3288,0.3175,0.3204,0.3152,0.3052,0.3009,0.3354,0.2653,0.2606,0.2585,0.2591,0.259,0.2593,0.2595,0.2597,0.2598,0.2473,0.2492,0.2534,0.2573,0.2616,0.2646,0.2659,0.27,0.2778,0.2807,0.3007,0.2979,0.3019,0.2904,0.2839,0.2763,0.2965,0.2805,0.2808,0.2816,0.2756,0.2718,0.2711,0.2714,0.2717,0.272,0.2723,0,0.2435,0.2482,0.2526,0.2556,0.2533,0.2602,0.2658,0.2577,0.2563,0.2607,0.2643,0.2448,0.2411,0.2442,0.2279,0.2334,0.2215,0.2251,0.2037,0.2074,0.2105,0.1999,0.1757,0.1754,0.1751,0.1748,0,0,0.2425,0.243,0.2444,0.2422,0.2461,0.2372,0.2373,0.2271,0.2226,0.2105,0.2051,0.2182,0.2346,0.1972,0.1975,0.1835,0.1919,0.1763,0.254,0.2322,0.2348,0.2442,0.2326,0,0,0,0,0]},{"header":{"parameterUnit":"m.s-1","parameterCategory":2,"la1":30.2991,"la2":30.254,"lo1":-89.0895,"lo2":-89.0444,"dy":0.0017,"dx":0.0017,"nx":28,"ny":28,"refTime":"2024-09-25T09:00:00:Z","depth":"2","parameterNumber":3,"parameterNumberName":"V-component_of_CURRENTS"},"data":[0,0,0,0,0,0,0,0,0,0,0,0,0,0,0,0,0,0,0,0,0,0,0,0,0,0,0,0,0,0,0,0,0,0,0,0,0,0,0,0,0,0,0,0,0,0,0,0,0,0,0,0,0,0,0,0,0,0,-0.0096,-0.0096,0,-0.0145,-0.0146,-0.0147,-0.0187,-0.0187,-0.0187,-0.0188,-0.0254,-0.0256,-0.0257,0,0,0,0,0,0,0,0,0,0,0,0,0,-0.0087,-0.0087,-0.0096,-0.0096,-0.0097,-0.0145,-0.0146,-0.0147,-0.0187,-0.0187,-0.0187,-0.0188,-0.0254,-0.0255,-0.0257,0,0,0,0,0,0,0,0,0,0,0,0,0,-0.0111,-0.0087,-0.0096,-0.0121,-0.0123,-0.0145,-0.0146,-0.0147,-0.0187,-0.0187,-0.0187,-0.0188,-0.0253,-0.0255,-0.0257,-0.0265,0,0,-0.0265,-0.0266,0,0,0,0,0,0,0,0,-0.0109,-0.0111,-0.0117,-0.0119,-0.0122,-0.0159,-0.0167,-0.0187,-0.0187,-0.0165,-0.0188,-0.0188,-0.0222,-0.0227,-0.0238,-0.0268,-0.0271,-0.0265,-0.0266,-0.0267,-0.0268,0,0,0,0,0,0,0,-0.0108,-0.011,-0.0117,-0.0117,-0.012,-0.0147,-0.0151,-0.0172,-0.0193,-0.0167,-0.0169,-0.0172,-0.0224,-0.0236,-0.024,-0.0272,-0.0265,-0.0267,-0.0268,-0.0269,-0.0306,-0.0305,0,0,0,0,0,0,-0.0094,-0.0108,-0.0116,-0.0119,-0.0114,-0.0147,-0.0151,-0.0148,-0.0192,-0.0199,-0.0171,-0.0173,-0.0232,-0.0237,-0.0242,-0.0241,-0.0267,-0.0269,-0.0271,-0.0306,-0.0305,-0.0305,0,0,0,0,0,0,-0.0094,-0.0094,-0.0114,-0.0113,-0.0117,-0.0146,-0.0143,-0.0149,-0.0159,-0.0195,-0.0202,-0.0174,-0.0232,-0.0239,-0.0254,-0.0244,-0.027,-0.0273,-0.0306,-0.0306,-0.0305,-0.0246,0,0,0,0,0,0,-0.0093,-0.0094,-0.009,-0.0112,-0.0117,-0.0118,-0.0143,-0.0149,-0.0159,-0.0162,-0.02,-0.0207,-0.0233,-0.025,-0.0256,-0.0248,-0.0274,-0.0307,-0.0306,-0.0305,-0.0249,-0.0244,-0.0239,0,0,0,0,0,-0.0093,-0.008,-0.0089,-0.009,-0.0109,-0.0118,-0.0123,-0.0146,-0.0158,-0.0157,-0.0183,-0.0206,-0.025,-0.0252,-0.0259,-0.0251,-0.0307,-0.0306,-0.0305,-0.0251,-0.0245,-0.024,0,0,0,0,0,0,-0.0075,-0.0084,-0.0094,-0.0085,-0.0097,-0.0124,-0.0125,-0.014,-0.0161,-0.0163,-0.02,-0.0208,-0.0219,-0.0242,-0.0243,-0.0259,-0.0282,-0.0283,-0.0238,-0.0233,-0.0228,-0.0214,-0.0276,0,0,0,0,0,-0.0067,-0.0061,-0.0076,-0.007,-0.0074,-0.0099,-0.0106,-0.0119,-0.0139,-0.0148,-0.0175,-0.0201,-0.0221,-0.0231,-0.0254,-0.0261,-0.0289,-0.0261,-0.0256,-0.0252,-0.0246,-0.028,-0.0278,-0.0302,-0.0302,-0.0302,0,0,-0.0059,-0.0063,-0.006,-0.0066,-0.0079,-0.0073,-0.0104,-0.0108,-0.0105,-0.0152,-0.0158,-0.0187,-0.022,-0.0229,-0.0235,-0.0246,-0.026,-0.0251,-0.0247,-0.0243,-0.0279,-0.0277,-0.0275,-0.0301,-0.0301,-0.0301,0,0,-0.0033,-0.0041,-0.0026,-0.0032,-0.0042,-0.0054,-0.005,-0.0072,-0.0084,-0.0093,-0.0125,-0.0145,-0.0177,-0.0197,-0.0211,-0.0194,-0.0235,-0.0202,-0.0166,-0.0199,-0.0197,-0.0196,-0.0226,-0.0228,-0.0198,-0.0198,-0.0198,0,-0.0024,-0.0005,-0.0024,-0.0012,-0.0009,-0.0039,-0.0021,-0.0037,-0.0061,-0.0065,-0.0086,-0.0131,-0.0161,-0.017,-0.0165,-0.0183,-0.0209,-0.0184,-0.0193,-0.0192,-0.0192,-0.0223,-0.0226,-0.0195,-0.0195,-0.0196,-0.0196,0,0.0013,0.0026,0.0034,0.0043,0.0043,0.0053,0.0035,0.0029,0.0011,-0.0007,-0.0025,-0.007,-0.0095,-0.0109,-0.0132,-0.0141,-0.0162,-0.0184,-0.0205,-0.0186,-0.022,-0.0224,-0.0191,-0.0192,-0.0193,-0.0194,0,0,0.0042,0.0058,0.0061,0.0079,0.0074,0.0083,0.0087,0.0087,0.0097,0.0056,0.0061,0.0015,-0.0014,-0.0033,-0.0069,-0.0099,-0.0123,-0.0135,-0.0139,-0.0162,-0.0195,-0.0219,-0.0226,-0.0148,-0.0148,-0.0148,-0.0219,0,0.0077,0.0119,0.0115,0.0156,0.0177,0.0156,0.0164,0.0156,0.0143,0.0138,0.0082,0.007,0.0016,0.0007,-0.0032,-0.0095,-0.0131,-0.0102,-0.0214,-0.0217,-0.0238,-0.0231,-0.0187,-0.0247,-0.0223,-0.0224,-0.0225,0,0.0116,0.0141,0.0187,0.0219,0.0226,0.0241,0.026,0.0266,0.0245,0.0231,0.0201,0.0158,0.0113,0.0061,-0.0046,-0.0025,-0.0104,-0.0162,-0.0167,-0.0211,-0.0248,-0.0264,-0.0256,-0.0232,-0.0232,-0.0231,-0.0231,0,0.0155,0.0195,0.0238,0.0246,0.027,0.0284,0.0297,0.0293,0.0319,0.0294,0.0306,0.0231,0.0206,0.0096,-0.0032,-0.0037,-0.0156,-0.018,-0.028,-0.0282,-0.0278,-0.0279,-0.0263,-0.0263,-0.0263,-0.0263,-0.0263,0,0.0197,0.0233,0.0259,0.0282,0.0337,0.0331,0.0386,0.0383,0.0397,0.0442,0.0359,0.0375,0.0214,0.0126,-0.0005,-0.0153,-0.0142,-0.0272,-0.0302,-0.0256,-0.0255,-0.0269,-0.0269,-0.0265,-0.0265,-0.0264,-0.0264,0,0.0234,0.0248,0.0306,0.0341,0.0359,0.0398,0.046,0.0504,0.0496,0.0552,0.055,0.0487,0.0377,0.0201,0.0027,-0.0105,-0.0254,-0.0315,-0.0251,-0.0273,-0.0364,-0.036,-0.0422,-0.0424,-0.0425,-0.0426,-0.0427,0,0.0257,0.0289,0.0356,0.0402,0.0422,0.0481,0.053,0.0552,0.0614,0.0631,0.0672,0.0579,0.0546,0.027,0.0026,-0.0214,-0.0262,-0.0356,-0.0363,-0.0357,-0.038,-0.0374,-0.0369,-0.0334,-0.0334,-0.0334,-0.0334,0,0.0308,0.0329,0.0381,0.0471,0.0535,0.0616,0.069,0.0757,0.079,0.0836,0.0884,0.0855,0.0602,0.0383,0.0031,-0.0134,-0.0315,-0.0364,-0.0374,-0.0301,-0.028,-0.0301,-0.0297,-0.0334,-0.0334,-0.0334,-0.0334,-0.0334,0.0351,0.0398,0.0467,0.0553,0.0635,0.0741,0.0823,0.092,0.1027,0.1113,0.1054,0.1022,0.0742,0.0332,0.0031,-0.0297,-0.0291,-0.0409,-0.0407,-0.0405,-0.0382,-0.0364,-0.043,-0.0431,-0.0431,-0.0431,-0.0432,0,0.0424,0.0462,0.0547,0.0655,0.0771,0.0781,0.0927,0.1035,0.1185,0.1235,0.1271,0.1029,0.075,0.0415,-0.005,-0.0335,-0.0346,-0.0438,-0.0383,-0.0381,-0.038,-0.0354,-0.0396,-0.0397,-0.0397,-0.0398,0,0,0.0462,0.0559,0.06,0.0771,0.0835,0.0996,0.1088,0.1232,0.1322,0.141,0.138,0.1281,0.0863,0.0537,0.0148,-0.0123,-0.0187,-0.0179,-0.0177,-0.0064,-0.0059,-0.0335,-0.029,0,0,0,0,0]}],[{"header":{"parameterUnit":"m.s-1","parameterCategory":2,"la1":30.2991,"la2":30.254,"lo1":-89.0895,"lo2":-89.0444,"dy":0.0017,"dx":0.0017,"nx":28,"ny":28,"refTime":"2024-09-25T09:00:00:Z","depth":"4","parameterNumber":2,"parameterNumberName":"U-component_of_CURRENTS"},"data":[0,0,0,0,0,0,0,0,0,0,0,0,0,0,0,0,0,0,0,0,0,0,0,0,0,0,0,0,0,0,0,0,0,0,0,0,0,0,0,0,0,0,0,0,0,0,0,0,0,0,0,0,0,0,0,0,0,0,0.143,0.143,0,0.1476,0.1477,0.1477,0.1519,0.1519,0.152,0.1521,0.1582,0.1583,0.1584,0,0,0,0,0,0,0,0,0,0,0,0,0,0.1369,0.137,0.143,0.143,0.1431,0.1476,0.1477,0.1477,0.1519,0.152,0.152,0.1521,0.1581,0.1583,0.1584,0,0,0,0,0,0,0,0,0,0,0,0,0,0.1402,0.137,0.143,0.1458,0.1461,0.1476,0.1477,0.1478,0.1519,0.152,0.152,0.1521,0.1581,0.1583,0.1584,0.1575,0,0,0.1589,0.159,0,0,0,0,0,0,0,0,0.14,0.1404,0.1453,0.1456,0.146,0.1494,0.1478,0.1511,0.1518,0.1495,0.1521,0.1522,0.1554,0.1558,0.1562,0.1578,0.1581,0.1589,0.159,0.1591,0.1591,0,0,0,0,0,0,0,0.1398,0.1402,0.1447,0.1454,0.1458,0.1467,0.1472,0.1484,0.1518,0.1497,0.1501,0.1508,0.1556,0.1561,0.1564,0.1582,0.1589,0.159,0.1591,0.1592,0.1695,0.1696,0,0,0,0,0,0,0.1395,0.14,0.1445,0.1448,0.1433,0.1467,0.1473,0.1481,0.1518,0.1525,0.1507,0.151,0.1557,0.1562,0.1566,0.1648,0.1591,0.1592,0.1593,0.1693,0.1695,0.1697,0,0,0,0,0,0,0.1393,0.1398,0.1443,0.1426,0.1433,0.1467,0.1475,0.1481,0.152,0.1525,0.1532,0.1544,0.1558,0.1564,0.1611,0.1647,0.1593,0.1594,0.1691,0.1693,0.1696,0.1753,0,0,0,0,0,0,0.1391,0.1397,0.1418,0.1426,0.1434,0.1474,0.1475,0.1482,0.1521,0.1526,0.1558,0.1563,0.156,0.1608,0.1612,0.1648,0.1595,0.1688,0.1692,0.1695,0.1749,0.1758,0.1765,0,0,0,0,0,0.1389,0.1406,0.1418,0.1425,0.1455,0.1475,0.148,0.1506,0.1523,0.1544,0.1571,0.1564,0.1632,0.1611,0.1615,0.1653,0.1687,0.1691,0.1695,0.1746,0.1756,0.1765,0,0,0,0,0,0,0.1391,0.1413,0.1426,0.145,0.1473,0.1483,0.151,0.1525,0.1562,0.1579,0.1583,0.159,0.1645,0.1642,0.1618,0.1693,0.166,0.1665,0.1697,0.1707,0.1715,0.1722,0.1597,0,0,0,0,0,0.14,0.1423,0.144,0.1465,0.1479,0.1502,0.152,0.1538,0.1563,0.1582,0.1605,0.1632,0.1658,0.1678,0.1697,0.1736,0.174,0.1764,0.1772,0.1779,0.1789,0.1825,0.1837,0.171,0.171,0.171,0,0,0.1409,0.1425,0.1439,0.1469,0.149,0.1515,0.1516,0.1554,0.1585,0.1582,0.1643,0.1662,0.1675,0.1722,0.1746,0.1728,0.1819,0.1784,0.1789,0.1796,0.183,0.1843,0.1854,0.1713,0.1712,0.1712,0,0,0.1425,0.1453,0.1475,0.1497,0.1536,0.1548,0.1567,0.1599,0.163,0.1678,0.169,0.1734,0.1771,0.179,0.1801,0.1864,0.1859,0.1877,0.1923,0.1958,0.1968,0.1978,0.2001,0.2012,0.188,0.188,0.188,0,0.1438,0.1464,0.1486,0.1512,0.1537,0.1568,0.1597,0.1627,0.1674,0.1703,0.171,0.1789,0.1802,0.1856,0.1883,0.1882,0.19,0.1883,0.1967,0.1977,0.1985,0.2007,0.2019,0.1883,0.1883,0.1883,0.1882,0,0.146,0.1495,0.1513,0.1555,0.1585,0.1618,0.1655,0.17,0.1741,0.1767,0.1843,0.1867,0.1913,0.1927,0.1927,0.1999,0.1992,0.1972,0.194,0.2001,0.2021,0.2032,0.1888,0.1887,0.1886,0.1885,0,0,0.1447,0.1514,0.1524,0.1553,0.1613,0.1634,0.1698,0.1752,0.1805,0.1856,0.1922,0.1973,0.1998,0.2014,0.2026,0.2061,0.2136,0.2053,0.2053,0.2071,0.2218,0.2091,0.209,0.2137,0.2139,0.2141,0.2208,0,0.146,0.1511,0.1546,0.1604,0.1632,0.1686,0.1739,0.1798,0.1857,0.193,0.1971,0.2041,0.2027,0.2071,0.2102,0.2137,0.2168,0.212,0.2161,0.2162,0.2038,0.2099,0.2148,0.2216,0.2218,0.222,0.2221,0,0.1462,0.1498,0.1555,0.163,0.165,0.1697,0.1792,0.1846,0.1946,0.1999,0.2071,0.211,0.2189,0.2164,0.2244,0.222,0.2229,0.224,0.2242,0.2111,0.2055,0.2143,0.2241,0.2239,0.2238,0.2236,0.2235,0,0.1422,0.1501,0.1548,0.1574,0.1664,0.1715,0.1773,0.1872,0.1937,0.2059,0.2124,0.2202,0.2269,0.2297,0.2328,0.2303,0.2403,0.236,0.2248,0.2239,0.2307,0.2296,0.2408,0.2407,0.2407,0.2407,0.2407,0,0.14,0.1442,0.1542,0.1565,0.1636,0.1709,0.1802,0.1875,0.1998,0.207,0.2165,0.2228,0.2312,0.2371,0.2369,0.2348,0.2436,0.227,0.2253,0.2329,0.2321,0.2314,0.2302,0.241,0.2409,0.2409,0.2408,0,0.1339,0.1407,0.1466,0.1575,0.1618,0.167,0.1815,0.1875,0.2007,0.211,0.2159,0.2289,0.2358,0.2414,0.2474,0.2396,0.2391,0.2356,0.2454,0.2439,0.219,0.2181,0.2229,0.2225,0.2222,0.2219,0.2217,0,0.1306,0.1334,0.1459,0.1501,0.1558,0.1656,0.1719,0.1865,0.1927,0.2116,0.2145,0.2282,0.2341,0.2325,0.239,0.2386,0.2348,0.233,0.2237,0.2196,0.2175,0.2171,0.2166,0.2212,0.2211,0.221,0.2209,0,0.1239,0.1302,0.1349,0.1437,0.1513,0.1584,0.1687,0.1729,0.1885,0.2029,0.2085,0.2127,0.2203,0.2235,0.2264,0.2247,0.2334,0.2295,0.23,0.2212,0.2175,0.2157,0.2156,0.2198,0.22,0.2201,0.2201,0,0.1195,0.1208,0.1284,0.135,0.1438,0.1474,0.1549,0.162,0.1704,0.1905,0.1919,0.2051,0.2178,0.2165,0.2185,0.2174,0.2122,0.2032,0.205,0.2063,0.1977,0.1904,0.184,0,0,0,0,0,0.1136,0.1138,0.119,0.1246,0.1329,0.1377,0.1503,0.158,0.1737,0.1727,0.182,0.1875,0.1921,0.1992,0.1944,0.2104,0.2128,0.2039,0.2033,0.2135,0.2148,0.2061,0,0,0,0,0,0,0.1092,0.1131,0.1145,0.1145,0.1165,0.1234,0.1306,0.1417,0.1422,0.1591,0.1625,0.1754,0.1824,0.1921,0.1902,0.1923,0.188,0.2128,0.2123,0.2128,0.214,0.215,0.2065,0,0,0,0,0]},{"header":{"parameterUnit":"m.s-1","parameterCategory":2,"la1":30.2991,"la2":30.254,"lo1":-89.0895,"lo2":-89.0444,"dy":0.0017,"dx":0.0017,"nx":28,"ny":28,"refTime":"2024-09-25T09:00:00:Z","depth":"4","parameterNumber":3,"parameterNumberName":"V-component_of_CURRENTS"},"data":[0,0,0,0,0,0,0,0,0,0,0,0,0,0,0,0,0,0,0,0,0,0,0,0,0,0,0,0,0,0,0,0,0,0,0,0,0,0,0,0,0,0,0,0,0,0,0,0,0,0,0,0,0,0,0,0,0,0,0.0256,0.0256,0,0.0223,0.0222,0.0222,0.0204,0.0204,0.0205,0.0205,0.0151,0.015,0.0148,0,0,0,0,0,0,0,0,0,0,0,0,0,0.0264,0.0265,0.0256,0.0256,0.0256,0.0223,0.0222,0.0222,0.0204,0.0204,0.0205,0.0205,0.0152,0.015,0.0148,0,0,0,0,0,0,0,0,0,0,0,0,0,0.0248,0.0265,0.0256,0.0244,0.0243,0.0223,0.0222,0.0222,0.0204,0.0204,0.0205,0.0205,0.0152,0.015,0.0148,0.0131,0,0,0.0141,0.014,0,0,0,0,0,0,0,0,0.0249,0.0247,0.0246,0.0245,0.0243,0.0219,0.0206,0.0191,0.0204,0.0218,0.0205,0.0205,0.0173,0.0169,0.0161,0.0128,0.0126,0.0141,0.0139,0.0138,0.0138,0,0,0,0,0,0,0,0.025,0.0248,0.0242,0.0246,0.0244,0.0226,0.0224,0.0202,0.0193,0.0216,0.0215,0.0214,0.0172,0.0163,0.0159,0.0125,0.0141,0.0139,0.0137,0.0136,0.0076,0.0076,0,0,0,0,0,0,0.0259,0.025,0.0243,0.0241,0.0248,0.0226,0.0224,0.0226,0.0194,0.019,0.0214,0.0213,0.0167,0.0162,0.0157,0.0146,0.0138,0.0136,0.0135,0.0077,0.0076,0.0076,0,0,0,0,0,0,0.0259,0.0259,0.0244,0.0245,0.0242,0.0227,0.0228,0.0225,0.0219,0.0192,0.0188,0.0212,0.0167,0.016,0.0141,0.0144,0.0135,0.0133,0.0077,0.0077,0.0076,0.0117,0,0,0,0,0,0,0.026,0.0259,0.0264,0.0246,0.0243,0.0237,0.0228,0.0224,0.0218,0.0217,0.0189,0.0184,0.0166,0.0145,0.0139,0.014,0.0131,0.0077,0.0077,0.0076,0.0116,0.0118,0.012,0,0,0,0,0,0.026,0.0267,0.0264,0.0263,0.025,0.0237,0.0233,0.0221,0.0218,0.0216,0.0198,0.0185,0.0138,0.0143,0.0136,0.0137,0.0077,0.0077,0.0076,0.0115,0.0118,0.012,0,0,0,0,0,0,0.0271,0.0265,0.0262,0.0266,0.0255,0.0235,0.0234,0.0224,0.0208,0.0209,0.0182,0.0176,0.0159,0.014,0.0146,0.0117,0.0105,0.0103,0.0137,0.0139,0.0141,0.0159,0.0129,0,0,0,0,0,0.0277,0.0282,0.0268,0.0272,0.0269,0.0252,0.0246,0.0238,0.0221,0.0215,0.0194,0.0172,0.015,0.014,0.0117,0.0102,0.0081,0.0097,0.0099,0.0101,0.011,0.0076,0.0077,0.0074,0.0074,0.0074,0,0,0.0283,0.028,0.0283,0.0275,0.0266,0.0268,0.0248,0.0243,0.0244,0.0211,0.0204,0.0177,0.0147,0.0131,0.0122,0.0117,0.0088,0.01,0.0102,0.0111,0.0076,0.0076,0.0076,0.0074,0.0074,0.0074,0,0,0.0298,0.0294,0.0305,0.0298,0.0289,0.028,0.0281,0.0263,0.0254,0.0241,0.0218,0.0196,0.0163,0.0144,0.013,0.0128,0.0099,0.0117,0.0144,0.0111,0.0111,0.0111,0.0081,0.0078,0.0119,0.0119,0.0119,0,0.0306,0.0319,0.0304,0.031,0.0314,0.0289,0.0302,0.0286,0.0264,0.0261,0.0244,0.0198,0.0171,0.0155,0.0154,0.0134,0.011,0.014,0.0115,0.0114,0.0113,0.0082,0.0079,0.0121,0.0121,0.0121,0.012,0,0.0328,0.0339,0.0344,0.035,0.0347,0.0353,0.0336,0.0327,0.0313,0.0299,0.0277,0.0234,0.021,0.0192,0.0173,0.0155,0.0138,0.0121,0.0113,0.0116,0.0083,0.0078,0.0124,0.0123,0.0123,0.0122,0,0,0.035,0.036,0.0363,0.038,0.0372,0.0378,0.0374,0.0371,0.0379,0.0339,0.034,0.0292,0.0268,0.025,0.0216,0.0185,0.0154,0.0155,0.0153,0.0133,0.0081,0.0067,0.006,0.0132,0.0131,0.0131,0.0059,0,0.0376,0.0407,0.0402,0.0435,0.0453,0.0434,0.0436,0.0426,0.0411,0.0402,0.035,0.0335,0.029,0.0279,0.024,0.0179,0.0144,0.0175,0.0074,0.0071,0.0065,0.0055,0.0129,0.0055,0.0054,0.0054,0.0053,0,0.0405,0.0425,0.0464,0.0491,0.0497,0.0508,0.0523,0.052,0.0494,0.048,0.0449,0.0408,0.0359,0.0318,0.0214,0.0235,0.0164,0.011,0.0106,0.0079,0.0049,0.005,0.0044,0.0045,0.0045,0.0046,0.0046,0,0.0444,0.0473,0.0513,0.052,0.0538,0.0552,0.0558,0.0547,0.0562,0.0532,0.0536,0.0465,0.0433,0.0336,0.022,0.0216,0.01,0.008,-0.0,-0.0002,0.0015,0.0016,0.0005,0.0005,0.0005,0.0006,0.0006,0,0.0479,0.0513,0.0536,0.0558,0.0607,0.0598,0.0644,0.0633,0.0633,0.0655,0.0582,0.0574,0.0436,0.0351,0.0238,0.0106,0.011,0.0005,-0.0022,0.0032,0.0036,0.0011,0.0013,0.0003,0.0003,0.0004,0.0004,0,0.0517,0.053,0.0582,0.0614,0.063,0.0664,0.071,0.0739,0.0724,0.0748,0.0741,0.0658,0.0541,0.0398,0.0238,0.0138,0.0009,-0.0041,0.0031,0.0009,-0.0077,-0.0072,-0.0134,-0.0135,-0.0136,-0.0137,-0.0138,0,0.0539,0.057,0.063,0.0668,0.0687,0.0739,0.0776,0.0785,0.0817,0.0797,0.0809,0.0708,0.0632,0.04,0.024,0.0023,-0.0013,-0.0084,-0.0087,-0.0071,-0.0091,-0.0085,-0.008,-0.0139,-0.0139,-0.014,-0.014,0,0.0584,0.0607,0.065,0.0726,0.078,0.0843,0.0892,0.0921,0.0923,0.0917,0.0862,0.0731,0.0596,0.0405,0.0233,0.0076,-0.004,-0.0095,-0.0094,-0.0097,-0.0078,-0.0095,-0.0089,-0.0143,-0.0142,-0.0142,-0.0142,0,0.0621,0.0659,0.0716,0.0781,0.0854,0.0915,0.0939,0.096,0.0982,0.0945,0.0926,0.0766,0.0673,0.0432,0.0276,0.0117,0.0073,0.0013,0.0008,0.0009,0.0066,0.0112,0.0084,0,0,0,0,0,0.065,0.0696,0.0764,0.0836,0.0906,0.0948,0.1004,0.1017,0.1017,0.0987,0.0956,0.0825,0.0576,0.047,0.0311,0.0256,0.0047,0.0061,-0.0023,-0.0161,-0.0157,-0.0117,0,0,0,0,0,0,0.0673,0.0741,0.077,0.0867,0.0921,0.1002,0.1039,0.1039,0.1016,0.0987,0.0863,0.0782,0.055,0.0676,0.031,0.026,0.0181,-0.0054,-0.0058,-0.0163,-0.0159,-0.0156,-0.0114,0,0,0,0,0]}]]